Location: Tierz
(42.1336°N, 0.3549°W)
Time: 10:38:58
(UTC+00:00)

Cosmos 1758 Rocket - Pass Details

Date: 29 October 2020
Orbit: 601 x 637 km, 82.5° (Epoch: 29 November)

Event Time Altitude Azimuth Distance (km) Brightness Sun altitude
Rises 17:28:46 0° 347° (NNW) 2,902 7.0 -6.2°
Reaches altitude 10° 17:31:02 10° 344° (NNW) 1,985 6.2 -6.6°
Maximum altitude 17:35:20 57° 266° (W) 723 4.4 -7.4°
Drops below altitude 10° 17:39:34 10° 188° (S) 1,950 6.4 -8.2°
Sets 17:41:47 0° 184° (S) 2,845 7.2 -8.6°
